OpenBCM V2.0.3 (Linux)

Packet Radio Mailbox

IZ3LSV

[San Dona' di P. JN]

 Login: GUEST





  
LU9DCE > KEP      28.11.19 18:16l 243 Lines 12057 Bytes #999 (0) @ WW
BID : 3907_LU9DCE
Read: GUEST
Subj: TLE 28 11
Path: IZ3LSV<IQ5KG<IK1NHL<IW2OHX<IQ2LB<IR2UFV<N3HYM<N7HPX<LU9DCE
Sent: 191128/1600Z 3907@LU9DCE.TOR.BA.ARG.SOAM LinBPQ6.0.19

            __    _  _  ___  ____   ___  ____    ____  ____  ____
           (  )  / )( \/ _ \(    \ / __)(  __)  (  _ \(  _ \/ ___)
           / (_/\) \/ (\__  )) D (( (__  ) _)    ) _ ( ) _ (\___ \
           \____/\____/(___/(____/ \___)(____)  (____/(____/(____/
               ESTACION DE PACKET RADIO - BUENOS AIRES (GF05OM)
                   BOLETINES INFORMATIVOS PROGRAMADOS (BIP)
                  SLACKWARE LINUX - HELLOCODELINUX@GMAIL.COM
+----------------------------------------------------------------------------+
OSCAR 7
1  7530U 74089B   19332.18389104 -.00000041  00000-0  22765-4 0  9997
2  7530 101.7695 298.3129 0012464  34.4176  35.3253 12.53641012 60880
OSCAR 11 (UoSAT 2)
1 14781U 84021B   19332.09470140  .00000096  00000-0  17835-4 0  9992
2 14781  97.6005 349.0401 0009430 139.0084 221.1841 14.83123528922832
OSCAR 19 (LUSAT)
1 20442U 90005G   19332.36569869 -.00000004  00000-0  14969-4 0  9994
2 20442  98.6670 274.2147 0012430  34.5712 325.6277 14.32938937559672
EYESAT A
1 22825U 93061C   19331.82196483 -.00000005 +00000-0 +16010-4 0  9994
2 22825 098.9158 324.2613 0007454 244.1980 115.8433 14.30072194364852
ITAMSAT
1 22826U 93061D   19331.71587920 -.00000015  00000-0  12342-4 0  9998
2 22826  98.9098 324.1239 0008093 232.0066 128.0385 14.30406518365315
RADIO ROSTO
1 23439U 94085A   19331.81954864 -.00000031  00000-0  32625-3 0  9995
2 23439  64.8151 213.9415 0145639  81.4686 280.2711 11.27568855 26337
JAS 2
1 24278U 96046B   19331.85748660 -.00000029 +00000-0 +55657-5 0  9994
2 24278 098.5618 103.4654 0350411 179.5009 180.6548 13.53094713149484
TECHSAT 1B
1 25397U 98043D   19332.45996592 -.00000014  00000-0  13038-4 0  9992
2 25397  98.7058 270.7391 0000429 340.4624  19.6538 14.23675042111034
ISS (ZARYA)
1 25544U 98067A   19332.47434123  .00001951  00000-0  42103-4 0  9996
2 25544  51.6457 266.7868 0006657 335.3908 120.8288 15.50052869200741
PCSAT
1 26931U 01043C   19332.19041169 -.00000041  00000-0  16130-4 0  9999
2 26931  67.0510 304.3492 0007356 265.0775  94.9486 14.30560080948211
SAUDISAT 1C
1 27607U 02058C   19332.13648464 -.00000030  00000-0  16568-4 0  9995
2 27607  64.5552 272.9356 0071346 224.6764 134.8578 14.75591721911006
CUTE-1
1 27844U 03031E   19332.02921668  .00000052  00000-0  43018-4 0  9991
2 27844  98.6840 337.8170 0008838 282.8765  77.1425 14.22207820851363
CUBESAT XI 4
1 27848U 03031J   19332.27885990  .00000031  00000-0  34136-4 0  9997
2 27848  98.6914 338.5944 0008763 295.2948  64.7321 14.21799102851246
MOZHAYETS 4
1 27939U 03042A   19332.40315084  .00000077  00000-0  22442-4 0  9994
2 27939  98.0632 105.2792 0011708 272.2138  87.7734 14.66820571864394
CUBESAT XI 5
1 28895U 05043F   19332.14026335  .00000144  00000-0  36555-4 0  9993
2 28895  97.9821 109.5376 0016532 194.7523 165.3200 14.63715202751246
CUTE-1.7+APD II
1 32785U 08021C   19331.84544686  .00000216  00000-0  28845-4 0  9998
2 32785  97.5583 323.9897 0014616  85.7481 274.5406 14.88380605627800
DELFI C3
1 32789U 08021G   19332.41713116  .00001506  00000-0  10372-3 0  9990
2 32789  97.4455  17.0276 0010678 290.2708  69.7372 15.07286390631474
SEEDS
1 32791U 08021J   19331.99244601  .00000281  00000-0  33817-4 0  9992
2 32791  97.5323 330.2347 0014689  60.6637 299.6047 14.90920021628293
YUBELEINY
1 32953U 08025A   19332.30247748  .00000021  00000-0  75656-4 0  9996
2 32953  82.5068  43.6330 0020227 133.9822 226.2928 12.43092452522511
PRISM (HITOMI)
1 33493U 09002B   19332.11651502  .00000092  00000-0  13604-4 0  9991
2 33493  98.1279 259.2615 0015607   9.8179 350.3343 14.96820380589445
KKS-1 (KISEKI)
1 33499U 09002H   19331.82302691  .00000100  00000-0  22691-4 0  9992
2 33499  98.3353 175.6105 0010164  54.9931 305.2229 14.75483171583133
SWISSCUBE
1 35932U 09051B   19331.47059633  .00000144  00000-0  43535-4 0  9994
2 35932  98.5995 142.3359 0008175  36.3645 323.8105 14.56333848540325
BEESAT
1 35933U 09051C   19331.46398601  .00000113  00000-0  36411-4 0  9996
2 35933  98.6009 144.1508 0006590  50.0628 310.1147 14.56416758540431
ITUPSAT 1
1 35935U 09051E   19331.75274714  .00000103  00000-0  34894-4 0  9990
2 35935  98.6117 144.6729 0008859  45.4462 314.7457 14.55570406540217
XIWANG-1 (HOPE-1)
1 36122U 09072B   19331.70155892 -.00000028 +00000-0 +36345-4 0  9992
2 36122 100.0807 326.5085 0007288 335.5988 024.4773 13.16352405478193
TISAT 1
1 36799U 10035E   19331.73657082  .00000430  00000-0  49408-4 0  9994
2 36799  98.1740 129.4863 0011015 274.9464  85.0495 14.91213010508918
JUGNU
1 37839U 11058B   19332.40895687  .00000325  00000-0  31648-4 0  9996
2 37839  19.9618  68.0255 0018914 321.4899 102.3003 14.12665700420299
SRMSAT
1 37841U 11058D   19331.86024918 +.00000303 +00000-0 +21074-4 0  9997
2 37841 019.9706 131.4853 0011816 177.9827 333.8184 14.10644295419527
M-CUBED/EXP-1 PRIME
1 37855U 11061F   19332.41588955  .00001876  00000-0  10059-3 0  9990
2 37855 101.7234 311.6215 0172381 314.3831  44.3370 15.05834029441267
HORYU 2
1 38340U 12025D   19332.09924386  .00000184  00000-0  34859-4 0  9993
2 38340  98.3104  15.4042 0010745 332.1242  27.9389 14.75780286405112
STRAND 1
1 39090U 13009E   19332.09860601  .00000047  00000-0  31598-4 0  9993
2 39090  98.4706 175.2139 0009422 159.9374 200.2184 14.35107159353688
SOMP
1 39134U 13015E   19331.70616234  .00001103  00000-0  58804-4 0  9990
2 39134  64.8625 215.4096 0037890 277.0639  82.6180 15.20534720365223
BEESAT 3
1 39135U 13015F   19332.44602711  .00000904  00000-0  53671-4 0  9993
2 39135  64.8668 233.6229 0041201 280.6489  78.9998 15.17761906364942
BEESAT 2
1 39136U 13015G   19331.75426658 +.00001148 +00000-0 +66941-4 0  9996
2 39136 064.8692 240.1561 0030472 286.1055 073.6717 15.17176967364364
CUBEBUG 1
1 39153U 13018D   19332.22927337  .00000215  00000-0  34923-4 0  9990
2 39153  97.9821  69.4756 0017594  35.9238 324.3153 14.80630931355865
ZACUBE
1 39417U 13066B   19331.84132283 +.00000194 +00000-0 +30742-4 0  9992
2 39417 097.5614 336.2241 0057917 221.2528 138.4302 14.81184224325040
TRITON 1
1 39427U 13066M   19332.17011300  .00000220  00000-0  43048-4 0  9999
2 39427  97.6980 299.6932 0113982   6.0401 354.2149 14.67912279322172
GOMX 1
1 39430U 13066Q   19332.40362300  .00000226  00000-0  49419-4 0  9992
2 39430  97.7668 278.4059 0152237 101.0873 260.7482 14.59314734320330
HUMSAT D
1 39433U 13066T   19332.08764344  .00000378  00000-0  41946-4 0  9998
2 39433  97.5342  12.7913 0032123 117.7181 242.7303 14.92312690327295
CUBEBUG 2
1 39440U 13066AA  19331.44784219  .00000225  00000-0  38359-4 0  9993
2 39440  97.6130 320.4251 0078761 279.7466  79.4856 14.75922861323838
FUNCUBE 1
1 39444U 13066AE  19332.08930733  .00000252  00000-0  37290-4 0  9995
2 39444  97.5578 338.5516 0057215 213.4610 146.2985 14.82017539323985
UWE-3
1 39446U 13066AG  19331.44569024  .00000195  00000-0  32684-4 0  9995
2 39446  97.5864 327.5873 0068560 251.8747 107.4990 14.78456777323162
SPROUT
1 39770U 14029E   19332.36215611  .00000735  00000-0  87180-4 0  9998
2 39770  97.8910  74.6749 0007858 273.8207  86.2105 14.87520312299012
UNISAT 6
1 40012U 14033C   19331.84968172  .00000191  00000-0  35965-4 0  9993
2 40012  97.7330 191.2750 0057089 295.2779  64.2522 14.74037826292571
DUCHIFAT 1
1 40021U 14033M   19332.05311018  .00000337  00000-0  40206-4 0  9994
2 40021  97.9303 257.2153 0011644 231.6577 128.3594 14.90748019295733
QB50P1
1 40025U 14033R   19332.32742926  .00000313  00000-0  39260-4 0  9996
2 40025  97.9083 251.7441 0011112 242.1021 117.9071 14.89028378295520
CHUBUSAT 1
1 40300U 14070C   19332.47933872  .00000741  00000-0  35055-4 0  9994
2 40300  97.3146  42.4261 0019318 199.8843 171.1371 15.22267714280785
NUDT-PHONESAT
1 40900U 15049B   19332.32538374  .00002671  00000-0  11532-3 0  9996
2 40900  97.4351 340.1043 0012336 341.4892 143.2799 15.23333741232414
ZDPS 2A
1 40901U 15049C   19332.32012075  .00001017  00000-0  53348-4 0  9997
2 40901  97.4613 335.8277 0013578   4.0927 110.4105 15.17952977231907
ZDPS 2B
1 40902U 15049D   19332.36019840  .00001388  00000-0  71812-4 0  9996
2 40902  97.4571 333.2354 0013362   1.4888 105.3841 15.17848727231881
XW-2A
1 40903U 15049E   19332.38845205  .00002072  00000-0  49947-4 0  9996
2 40903  97.3180  15.9315 0011676 277.4757 147.5123 15.42368356235321
KAITUO 1A
1 40904U 15049F   19332.36781134  .00000436  00000-0  26484-4 0  9998
2 40904  97.4715 331.6470 0014904  10.4234  96.7371 15.15517718231637
OBJECT G
1 40905U 15049G   19332.36673089  .00000274  00000-0  18465-4 0  9998
2 40905  97.4767 329.0312 0015847   5.6550 101.6629 15.14400694231494
XW-2C
1 40906U 15049H   19332.40121733  .00001033  00000-0  57407-4 0  9991
2 40906  97.4719 331.8414 0014846   1.5970 108.0996 15.15842973231641
XW-2D
1 40907U 15049J   19332.35757468  .00000776  00000-0  43765-4 0  9991
2 40907  97.4698 331.4829 0014049 359.1144 107.9968 15.16043870231652
LILACSAT 2
1 40908U 15049K   19332.32312713  .00000739  00000-0  44344-4 0  9992
2 40908  97.4840 330.0809 0016085   6.7603  50.3989 15.13904276231413
XW-2F
1 40910U 15049M   19332.29758170  .00001216  00000-0  63821-4 0  9994
2 40910  97.4652 333.6776 0014338 350.9579 134.7867 15.17562717231678
XW-2B
1 40911U 15049N   19332.26863690  .00001070  00000-0  59125-4 0  9996
2 40911  97.4719 332.0721 0014063   0.7880 121.7527 15.15974872231537
KAITUO 1B
1 40912U 15049P   19332.27726081  .00001601  00000-0  77606-4 0  9994
2 40912  97.4501 337.5549 0013973 330.7329 153.5213 15.19910331232000
TIANWANG 1C (TW-1C)
1 40926U 15051B   19332.40496866  .00015363  00000-0  19640-3 0  9995
2 40926  97.1156  18.5258 0008738 118.3105 252.8250 15.59276628235483
